Flag for Spain Weather past 2 weeks in Almería, Spain

Now
60 °F

Refreshingly cool.


Feels Like: 60 °F
Forecast: 42 / 67 °F
Wind: 2 mph from South

Location: Almeria / Aeropuerto

Current Time: Mar 6, 2015 at 7:34:33 PM

Latest Report: Mar 6, 2015 at 6:00 PM


Visibility: N/A

Pressure: 30.46 "Hg

Humidity: 42%

Dew point: 36 °F

Location of AlmeríaLocation

Historic Weather in Almería — Graph

°F

Almería temperature yesterday

Maximum temperature yesterday: 65 °F (at 2:00 PM)
Minimum temperature yesterday: 48 °F (at 11:00 PM)
Average temperature yesterday: 58 °F

Past Weeks' High & Low Weather Summary

 TemperatureHumidityPressure
High71 °F (Feb 26, 11:00 AM)100% (Mar 2, 3:00 AM)30.49 "Hg (Mar 2, 3:00 AM)
Low45 °F (Mar 6, 6:00 AM)21% (Mar 5, 4:00 PM)29.68 "Hg (Feb 21, 4:00 PM)
Average59 °F65%30.17 "Hg
* Reported Feb 19 6:00 PM — Mar 6 6:00 PM, Almería, Weather by CustomWeather, © 2015

Note: Actual official high and low records may vary slightly from our data, if they occured in-between our weather recording intervals... More about our weather records

Advertising

Almería weather history for previous 24 hours

 ConditionsComfort  
Time TempWeatherWind HumidityBarometerVisibility
6:00 PM
Fri, Mar 6
60 °FRefreshingly cool.2 mph42%30.46 "HgN/A
5:00 PM60 °FRefreshingly cool.6 mph41%30.46 "HgN/A
4:00 PM61 °FSunny.6 mph43%30.47 "Hg25 mi
3:00 PM61 °FRefreshingly cool.7 mph39%30.47 "HgN/A
2:00 PM61 °FRefreshingly cool.8 mph34%30.48 "HgN/A
1:00 PM61 °FSunny.5 mph30%30.49 "Hg25 mi
11:00 AM60 °FRefreshingly cool.2 mph28%30.49 "HgN/A
10:00 AM56 °FSunny.7 mph29%30.48 "Hg25 mi
9:00 AM50 °FCool.12 mph32%30.47 "HgN/A
8:00 AM45 °FCool.12 mph35%30.45 "HgN/A
7:00 AM45 °FClear.10 mph35%30.43 "Hg19 mi
6:00 AM45 °FCool.12 mph35%30.41 "HgN/A
5:00 AM47 °FCool.10 mph35%30.41 "HgN/A
4:00 AM46 °FCool.10 mph37%30.41 "HgN/A
3:00 AM46 °FCool.10 mph40%30.43 "HgN/A
2:00 AM47 °FCool.9 mph41%30.44 "HgN/A
1:00 AM47 °FCool.9 mph45%30.45 "HgN/A
12:00 AM48 °FCool.7 mph57%30.45 "HgN/A
11:00 PM
Thu, Mar 5
48 °FCool.6 mph62%30.45 "HgN/A
9:00 PM51 °FCool.5 mph58%30.44 "HgN/A
8:00 PM53 °FCool.2 mph53%30.44 "HgN/A
7:00 PM56 °FPassing clouds.7 mph47%30.42 "Hg31 mi
Weather by CustomWeather, © 2015

See weather overviewHow to use our weather pages